Year,Month,Day,Hour,Minute,Value (Times are PST for windgust in km/hr)
2011,07,07,00,00,4.80
2011,07,07,00,01,4.80
2011,07,07,00,02,3.20
2011,07,07,00,03,3.20
2011,07,07,00,11,1.60
2011,07,07,00,14,4.80
2011,07,07,00,15,4.80
2011,07,07,00,16,1.60
2011,07,07,00,23,1.60
2011,07,07,00,24,1.60
2011,07,07,00,32,3.20
2011,07,07,00,33,3.20
2011,07,07,00,34,1.60
2011,07,07,00,35,1.60
2011,07,07,00,41,1.60
2011,07,07,00,43,1.60
2011,07,07,00,57,4.80
2011,07,07,01,07,3.20
2011,07,07,01,08,1.60
2011,07,07,01,09,4.80
2011,07,07,01,12,4.80
2011,07,07,01,13,6.40
2011,07,07,01,17,1.60
2011,07,07,01,18,1.60
2011,07,07,01,19,3.20
2011,07,07,01,20,3.20
2011,07,07,01,22,1.60
2011,07,07,01,23,1.60
2011,07,07,01,25,1.60
2011,07,07,01,37,1.60
2011,07,07,01,40,1.60
2011,07,07,01,42,3.20
2011,07,07,01,43,1.60
2011,07,07,01,47,1.60
2011,07,07,01,50,3.20
2011,07,07,01,51,6.40
2011,07,07,01,53,1.60
2011,07,07,01,54,3.20
2011,07,07,01,55,1.60
2011,07,07,01,56,3.20
2011,07,07,01,57,1.60
2011,07,07,01,58,1.60
2011,07,07,01,59,1.60
2011,07,07,02,06,4.80
2011,07,07,02,07,6.40
2011,07,07,02,08,3.20
2011,07,07,02,09,1.60
2011,07,07,02,10,3.20
2011,07,07,02,11,3.20
2011,07,07,02,12,3.20
2011,07,07,02,13,4.80
2011,07,07,02,14,1.60
2011,07,07,02,15,4.80
2011,07,07,02,16,3.20
2011,07,07,02,21,1.60
2011,07,07,02,22,1.60
2011,07,07,02,23,3.20
2011,07,07,02,24,6.40
2011,07,07,02,25,4.80
2011,07,07,02,26,3.20
2011,07,07,02,27,4.80
2011,07,07,02,28,3.20
2011,07,07,02,29,4.80
2011,07,07,02,30,6.40
2011,07,07,02,31,4.80
2011,07,07,02,32,6.40
2011,07,07,02,33,4.80
2011,07,07,02,34,4.80
2011,07,07,02,35,8.10
2011,07,07,02,36,8.10
2011,07,07,02,37,8.10
2011,07,07,02,38,8.10
2011,07,07,02,39,6.40
2011,07,07,02,40,4.80
2011,07,07,02,41,4.80
2011,07,07,02,42,8.10
2011,07,07,02,43,4.80
2011,07,07,02,44,8.10
2011,07,07,02,45,3.20
2011,07,07,02,46,3.20
2011,07,07,02,47,6.40
2011,07,07,02,48,4.80
2011,07,07,02,49,3.20
2011,07,07,02,50,8.10
2011,07,07,02,51,4.80
2011,07,07,02,52,3.20
2011,07,07,02,53,4.80
2011,07,07,02,54,4.80
2011,07,07,02,55,1.60
2011,07,07,02,56,3.20
2011,07,07,02,57,3.20
2011,07,07,02,58,3.20
2011,07,07,02,59,3.20
2011,07,07,03,00,4.80
2011,07,07,03,01,8.10
2011,07,07,03,02,6.40
2011,07,07,03,03,4.80
2011,07,07,03,04,8.10
2011,07,07,03,05,8.10
2011,07,07,03,06,8.10
2011,07,07,03,07,6.40
2011,07,07,03,08,3.20
2011,07,07,03,10,4.80
2011,07,07,03,11,4.80
2011,07,07,03,12,4.80
2011,07,07,03,13,6.40
2011,07,07,03,14,4.80
2011,07,07,03,15,3.20
2011,07,07,03,16,3.20
2011,07,07,03,17,3.20
2011,07,07,03,18,1.60
2011,07,07,03,19,3.20
2011,07,07,03,20,3.20
2011,07,07,03,21,6.40
2011,07,07,03,22,4.80
2011,07,07,03,23,4.80
2011,07,07,03,24,8.10
2011,07,07,03,25,8.10
2011,07,07,03,26,3.20
2011,07,07,03,27,4.80
2011,07,07,03,28,6.40
2011,07,07,03,29,6.40
2011,07,07,03,30,8.10
2011,07,07,03,31,6.40
2011,07,07,03,32,4.80
2011,07,07,03,33,1.60
2011,07,07,03,34,6.40
2011,07,07,03,35,6.40
2011,07,07,03,36,3.20
2011,07,07,03,37,1.60
2011,07,07,03,38,4.80
2011,07,07,03,39,6.40
2011,07,07,03,40,4.80
2011,07,07,03,41,8.10
2011,07,07,03,42,8.10
2011,07,07,03,43,4.80
2011,07,07,03,44,6.40
2011,07,07,03,45,9.60
2011,07,07,03,46,9.60
2011,07,07,03,47,8.10
2011,07,07,03,48,8.10
2011,07,07,03,49,1.60
2011,07,07,03,50,6.40
2011,07,07,03,51,4.80
2011,07,07,03,52,8.10
2011,07,07,03,53,8.10
2011,07,07,03,54,4.80
2011,07,07,03,55,3.20
2011,07,07,03,56,4.80
2011,07,07,03,57,3.20
2011,07,07,03,58,4.80
2011,07,07,03,59,6.40
2011,07,07,04,00,6.40
2011,07,07,04,01,4.80
2011,07,07,04,02,3.20
2011,07,07,04,03,4.80
2011,07,07,04,04,8.10
2011,07,07,04,05,6.40
2011,07,07,04,06,6.40
2011,07,07,04,07,4.80
2011,07,07,04,08,8.10
2011,07,07,04,09,4.80
2011,07,07,04,10,6.40
2011,07,07,04,11,3.20
2011,07,07,04,12,4.80
2011,07,07,04,13,3.20
2011,07,07,04,14,6.40
2011,07,07,04,15,4.80
2011,07,07,04,16,1.60
2011,07,07,04,17,3.20
2011,07,07,04,18,8.10
2011,07,07,04,19,8.10
2011,07,07,04,20,3.20
2011,07,07,04,21,4.80
2011,07,07,04,22,11.30
2011,07,07,04,23,1.60
2011,07,07,04,24,9.60
2011,07,07,04,25,9.60
2011,07,07,04,26,8.10
2011,07,07,04,27,6.40
2011,07,07,04,29,3.20
2011,07,07,04,30,4.80
2011,07,07,04,31,4.80
2011,07,07,04,32,8.10
2011,07,07,04,33,6.40
2011,07,07,04,34,6.40
2011,07,07,04,35,3.20
2011,07,07,04,36,9.60
2011,07,07,04,37,8.10
2011,07,07,04,38,4.80
2011,07,07,04,39,4.80
2011,07,07,04,40,1.60
2011,07,07,04,41,6.40
2011,07,07,04,42,6.40
2011,07,07,04,43,3.20
2011,07,07,04,44,4.80
2011,07,07,04,45,3.20
2011,07,07,04,46,3.20
2011,07,07,04,47,6.40
2011,07,07,04,48,8.10
2011,07,07,04,49,4.80
2011,07,07,04,50,6.40
2011,07,07,04,51,4.80
2011,07,07,04,52,1.60
2011,07,07,04,53,8.10
2011,07,07,04,54,3.20
2011,07,07,04,55,1.60
2011,07,07,04,56,3.20
2011,07,07,04,57,3.20
2011,07,07,04,58,6.40
2011,07,07,04,59,6.40
2011,07,07,05,00,6.40
2011,07,07,05,01,6.40
2011,07,07,05,02,3.20
2011,07,07,05,03,1.60
2011,07,07,05,06,3.20
2011,07,07,05,07,4.80
2011,07,07,05,08,6.40
2011,07,07,05,09,3.20
2011,07,07,05,10,3.20
2011,07,07,05,12,4.80
2011,07,07,05,14,1.60
2011,07,07,05,16,3.20
2011,07,07,05,18,1.60
2011,07,07,05,19,1.60
2011,07,07,05,20,3.20
2011,07,07,05,21,4.80
2011,07,07,05,22,3.20
2011,07,07,05,25,1.60
2011,07,07,05,28,4.80
2011,07,07,05,29,1.60
2011,07,07,05,30,1.60
2011,07,07,05,33,4.80
2011,07,07,05,34,6.40
2011,07,07,05,35,4.80
2011,07,07,05,37,3.20
2011,07,07,05,38,1.60
2011,07,07,05,41,1.60
2011,07,07,05,42,3.20
2011,07,07,05,43,1.60
2011,07,07,05,44,3.20
2011,07,07,05,45,3.20
2011,07,07,05,46,1.60
2011,07,07,05,47,1.60
2011,07,07,05,49,1.60
2011,07,07,05,50,1.60
2011,07,07,05,52,1.60
2011,07,07,05,53,3.20
2011,07,07,05,56,1.60
2011,07,07,05,57,1.60
2011,07,07,06,03,1.60
2011,07,07,06,07,1.60
2011,07,07,06,09,1.60
2011,07,07,06,10,3.20
2011,07,07,06,16,3.20
2011,07,07,06,17,3.20
2011,07,07,06,18,4.80
2011,07,07,06,21,1.60
2011,07,07,06,28,1.60
2011,07,07,06,32,4.80
2011,07,07,06,33,4.80
2011,07,07,06,34,3.20
2011,07,07,06,35,6.40
2011,07,07,06,36,4.80
2011,07,07,06,37,1.60
2011,07,07,06,39,1.60
2011,07,07,06,40,1.60
2011,07,07,06,41,1.60
2011,07,07,06,42,4.80
2011,07,07,06,43,6.40
2011,07,07,06,44,4.80
2011,07,07,06,45,4.80
2011,07,07,06,47,3.20
2011,07,07,06,48,3.20
2011,07,07,06,49,6.40
2011,07,07,06,50,4.80
2011,07,07,06,51,3.20
2011,07,07,06,52,4.80
2011,07,07,06,54,6.40
2011,07,07,06,55,8.10
2011,07,07,06,56,3.20
2011,07,07,06,57,1.60
2011,07,07,06,58,1.60
2011,07,07,07,01,4.80
2011,07,07,07,02,17.70
2011,07,07,07,03,16.10
2011,07,07,07,04,8.10
2011,07,07,07,05,14.50
2011,07,07,07,06,11.30
2011,07,07,07,07,9.60
2011,07,07,07,08,4.80
2011,07,07,07,09,4.80
2011,07,07,07,10,14.50
2011,07,07,07,11,14.50
2011,07,07,07,12,9.60
2011,07,07,07,13,11.30
2011,07,07,07,14,8.10
2011,07,07,07,15,16.10
2011,07,07,07,16,14.50
2011,07,07,07,17,11.30
2011,07,07,07,18,9.60
2011,07,07,07,19,11.30
2011,07,07,07,20,16.10
2011,07,07,07,21,9.60
2011,07,07,07,22,14.50
2011,07,07,07,23,17.70
2011,07,07,07,24,17.70
2011,07,07,07,25,16.10
2011,07,07,07,26,14.50
2011,07,07,07,27,19.30
2011,07,07,07,28,11.30
2011,07,07,07,29,19.30
2011,07,07,07,30,14.50
2011,07,07,07,31,16.10
2011,07,07,07,32,17.70
2011,07,07,07,33,16.10
2011,07,07,07,34,16.10
2011,07,07,07,35,14.50
2011,07,07,07,36,16.10
2011,07,07,07,37,8.10
2011,07,07,07,38,9.60
2011,07,07,07,39,11.30
2011,07,07,07,40,9.60
2011,07,07,07,41,14.50
2011,07,07,07,42,16.10
2011,07,07,07,43,8.10
2011,07,07,07,44,4.80
2011,07,07,07,45,6.40
2011,07,07,07,46,4.80
2011,07,07,07,47,6.40
2011,07,07,07,48,11.30
2011,07,07,07,49,9.60
2011,07,07,07,50,11.30
2011,07,07,07,51,9.60
2011,07,07,07,52,6.40
2011,07,07,07,53,8.10
2011,07,07,07,54,11.30
2011,07,07,07,55,9.60
2011,07,07,07,56,9.60
2011,07,07,07,57,11.30
2011,07,07,07,58,8.10
2011,07,07,07,59,6.40
2011,07,07,08,00,4.80
2011,07,07,08,01,11.30
2011,07,07,08,02,3.20
2011,07,07,08,03,11.30
2011,07,07,08,04,9.60
2011,07,07,08,05,11.30
2011,07,07,08,06,4.80
2011,07,07,08,07,6.40
2011,07,07,08,08,8.10
2011,07,07,08,09,17.70
2011,07,07,08,10,9.60
2011,07,07,08,11,8.10
2011,07,07,08,12,14.50
2011,07,07,08,13,9.60
2011,07,07,08,14,6.40
2011,07,07,08,15,14.50
2011,07,07,08,16,8.10
2011,07,07,08,17,8.10
2011,07,07,08,18,11.30
2011,07,07,08,19,16.10
2011,07,07,08,20,14.50
2011,07,07,08,21,14.50
2011,07,07,08,22,9.60
2011,07,07,08,23,9.60
2011,07,07,08,24,9.60
2011,07,07,08,25,11.30
2011,07,07,08,26,6.40
2011,07,07,08,27,8.10
2011,07,07,08,28,14.50
2011,07,07,08,29,14.50
2011,07,07,08,30,8.10
2011,07,07,08,31,16.10
2011,07,07,08,32,14.50
2011,07,07,08,33,14.50
2011,07,07,08,34,9.60
2011,07,07,08,35,6.40
2011,07,07,08,36,16.10
2011,07,07,08,37,11.30
2011,07,07,08,38,11.30
2011,07,07,08,39,17.70
2011,07,07,08,40,12.90
2011,07,07,08,41,17.70
2011,07,07,08,42,9.60
2011,07,07,08,43,11.30
2011,07,07,08,44,16.10
2011,07,07,08,45,11.30
2011,07,07,08,46,6.40
2011,07,07,08,47,12.90
2011,07,07,08,48,14.50
2011,07,07,08,49,16.10
2011,07,07,08,50,16.10
2011,07,07,08,51,12.90
2011,07,07,08,52,11.30
2011,07,07,08,53,6.40
2011,07,07,08,54,9.60
2011,07,07,08,55,9.60
2011,07,07,08,56,9.60
2011,07,07,08,57,8.10
2011,07,07,08,58,14.50
2011,07,07,08,59,17.70
2011,07,07,09,00,16.10
2011,07,07,09,01,16.10
2011,07,07,09,02,22.50
2011,07,07,09,03,19.30
2011,07,07,09,04,9.60
2011,07,07,09,05,9.60
2011,07,07,09,06,14.50
2011,07,07,09,07,17.70
2011,07,07,09,08,17.70
2011,07,07,09,09,20.90
2011,07,07,09,10,17.70
2011,07,07,09,11,20.90
2011,07,07,09,12,20.90
2011,07,07,09,13,19.30
2011,07,07,09,14,20.90
2011,07,07,09,15,19.30
2011,07,07,09,16,24.20
2011,07,07,09,17,20.90
2011,07,07,09,18,17.70
2011,07,07,09,19,20.90
2011,07,07,09,20,22.50
2011,07,07,09,21,9.60
2011,07,07,09,22,11.30
2011,07,07,09,23,27.40
2011,07,07,09,24,14.50
2011,07,07,09,25,16.10
2011,07,07,09,26,24.20
2011,07,07,09,27,27.40
2011,07,07,09,28,24.20
2011,07,07,09,29,11.30
2011,07,07,09,30,16.10
2011,07,07,09,31,17.70
2011,07,07,09,32,9.60
2011,07,07,09,33,9.60
2011,07,07,09,34,8.10
2011,07,07,09,35,11.30
2011,07,07,09,36,17.70
2011,07,07,09,37,20.90
2011,07,07,09,38,17.70
2011,07,07,09,39,19.30
2011,07,07,09,40,11.30
2011,07,07,09,41,11.30
2011,07,07,09,42,14.50
2011,07,07,09,43,12.90
2011,07,07,09,44,17.70
2011,07,07,09,45,14.50
2011,07,07,09,46,14.50
2011,07,07,09,47,22.50
2011,07,07,09,48,16.10
2011,07,07,09,49,14.50
2011,07,07,09,50,14.50
2011,07,07,09,51,8.10
2011,07,07,09,52,4.80
2011,07,07,09,53,11.30
2011,07,07,09,54,11.30
2011,07,07,09,55,8.10
2011,07,07,09,56,6.40
2011,07,07,09,57,20.90
2011,07,07,09,58,19.30
2011,07,07,09,59,20.90
2011,07,07,10,00,22.50
2011,07,07,10,01,24.20
2011,07,07,10,02,19.30
2011,07,07,10,03,12.90
2011,07,07,10,04,17.70
2011,07,07,10,05,22.50
2011,07,07,10,06,29.00
2011,07,07,10,07,20.90
2011,07,07,10,08,17.70
2011,07,07,10,09,29.00
2011,07,07,10,10,27.40
2011,07,07,10,11,24.20
2011,07,07,10,12,20.90
2011,07,07,10,13,11.30
2011,07,07,10,14,19.30
2011,07,07,10,15,19.30
2011,07,07,10,16,20.90
2011,07,07,10,17,19.30
2011,07,07,10,18,17.70
2011,07,07,10,19,9.60
2011,07,07,10,20,9.60
2011,07,07,10,21,9.60
2011,07,07,10,22,11.30
2011,07,07,10,23,14.50
2011,07,07,10,24,14.50
2011,07,07,10,25,22.50
2011,07,07,10,26,20.90
2011,07,07,10,27,17.70
2011,07,07,10,28,25.70
2011,07,07,10,29,14.50
2011,07,07,10,30,22.50
2011,07,07,10,31,25.70
2011,07,07,10,32,16.10
2011,07,07,10,33,8.10
2011,07,07,10,34,14.50
2011,07,07,10,35,19.30
2011,07,07,10,36,22.50
2011,07,07,10,37,17.70
2011,07,07,10,38,20.90
2011,07,07,10,39,19.30
2011,07,07,10,40,27.40
2011,07,07,10,41,29.00
2011,07,07,10,42,22.50
2011,07,07,10,43,22.50
2011,07,07,10,44,20.90
2011,07,07,10,45,19.30
2011,07,07,10,46,14.50
2011,07,07,10,47,17.70
2011,07,07,10,48,9.60
2011,07,07,10,49,11.30
2011,07,07,10,50,14.50
2011,07,07,10,51,14.50
2011,07,07,10,52,19.30
2011,07,07,10,53,16.10
2011,07,07,10,54,24.20
2011,07,07,10,55,22.50
2011,07,07,10,56,20.90
2011,07,07,10,57,20.90
2011,07,07,10,58,20.90
2011,07,07,10,59,11.30
2011,07,07,11,00,24.20
2011,07,07,11,01,25.70
2011,07,07,11,02,20.90
2011,07,07,11,03,27.40
2011,07,07,11,04,30.60
2011,07,07,11,05,24.20
2011,07,07,11,06,11.30
2011,07,07,11,07,19.30
2011,07,07,11,08,24.20
2011,07,07,11,09,19.30
2011,07,07,11,10,16.10
2011,07,07,11,11,16.10
2011,07,07,11,12,19.30
2011,07,07,11,13,27.40
2011,07,07,11,14,24.20
2011,07,07,11,15,24.20
2011,07,07,11,16,32.20
2011,07,07,11,17,20.90
2011,07,07,11,18,30.60
2011,07,07,11,19,25.70
2011,07,07,11,20,29.00
2011,07,07,11,21,22.50
2011,07,07,11,22,22.50
2011,07,07,11,23,19.30
2011,07,07,11,24,27.40
2011,07,07,11,25,22.50
2011,07,07,11,26,17.70
2011,07,07,11,27,22.50
2011,07,07,11,28,19.30
2011,07,07,11,29,25.70
2011,07,07,11,30,27.40
2011,07,07,11,31,24.20
2011,07,07,11,32,29.00
2011,07,07,11,33,24.20
2011,07,07,11,34,20.90
2011,07,07,11,35,22.50
2011,07,07,11,36,16.10
2011,07,07,11,37,14.50
2011,07,07,11,38,20.90
2011,07,07,11,39,30.60
2011,07,07,11,40,30.60
2011,07,07,11,41,29.00
2011,07,07,11,42,27.40
2011,07,07,11,43,22.50
2011,07,07,11,44,20.90
2011,07,07,11,45,32.20
2011,07,07,11,46,25.70
2011,07,07,11,47,20.90
2011,07,07,11,48,12.90
2011,07,07,11,49,19.30
2011,07,07,11,50,19.30
2011,07,07,11,51,20.90
2011,07,07,11,52,20.90
2011,07,07,11,53,17.70
2011,07,07,11,54,14.50
2011,07,07,11,55,22.50
2011,07,07,11,56,29.00
2011,07,07,11,57,22.50
2011,07,07,11,58,24.20
2011,07,07,11,59,27.40
2011,07,07,12,00,20.90
2011,07,07,12,01,29.00
2011,07,07,12,02,22.50
2011,07,07,12,03,22.50
2011,07,07,12,04,27.40
2011,07,07,12,05,25.70
2011,07,07,12,06,27.40
2011,07,07,12,07,27.40
2011,07,07,12,08,32.20
2011,07,07,12,09,22.50
2011,07,07,12,10,22.50
2011,07,07,12,11,20.90
2011,07,07,12,12,17.70
2011,07,07,12,13,30.60
2011,07,07,12,14,22.50
2011,07,07,12,15,22.50
2011,07,07,12,16,25.70
2011,07,07,12,17,22.50
2011,07,07,12,18,30.60
2011,07,07,12,19,22.50
2011,07,07,12,20,29.00
2011,07,07,12,21,16.10
2011,07,07,12,22,24.20
2011,07,07,12,23,16.10
2011,07,07,12,24,17.70
2011,07,07,12,25,14.50
2011,07,07,12,26,32.20
2011,07,07,12,27,32.20
2011,07,07,12,28,14.50
2011,07,07,12,29,35.40
2011,07,07,12,30,25.70
2011,07,07,12,31,24.20
2011,07,07,12,32,24.20
2011,07,07,12,33,32.20
2011,07,07,12,34,32.20
2011,07,07,12,35,33.80
2011,07,07,12,36,32.20
2011,07,07,12,37,33.80
2011,07,07,12,38,20.90
2011,07,07,12,39,29.00
2011,07,07,12,40,24.20
2011,07,07,12,41,38.60
2011,07,07,12,42,24.20
2011,07,07,12,43,20.90
2011,07,07,12,44,20.90
2011,07,07,12,45,25.70
2011,07,07,12,46,32.20
2011,07,07,12,47,25.70
2011,07,07,12,48,24.20
2011,07,07,12,49,22.50
2011,07,07,12,50,22.50
2011,07,07,12,51,35.40
2011,07,07,12,52,20.90
2011,07,07,12,53,12.90
2011,07,07,12,54,29.00
2011,07,07,12,55,25.70
2011,07,07,12,56,32.20
2011,07,07,12,57,32.20
2011,07,07,12,58,33.80
2011,07,07,12,59,37.00
2011,07,07,13,00,30.60
2011,07,07,13,01,22.50
2011,07,07,13,02,17.70
2011,07,07,13,03,20.90
2011,07,07,13,04,22.50
2011,07,07,13,05,35.40
2011,07,07,13,06,30.60
2011,07,07,13,07,27.40
2011,07,07,13,08,29.00
2011,07,07,13,09,25.70
2011,07,07,13,10,19.30
2011,07,07,13,11,27.40
2011,07,07,13,12,27.40
2011,07,07,13,13,38.60
2011,07,07,13,14,45.10
2011,07,07,13,15,30.60
2011,07,07,13,16,38.60
2011,07,07,13,17,30.60
2011,07,07,13,18,24.20
2011,07,07,13,19,24.20
2011,07,07,13,20,14.50
2011,07,07,13,21,19.30
2011,07,07,13,22,27.40
2011,07,07,13,23,20.90
2011,07,07,13,24,35.40
2011,07,07,13,25,19.30
2011,07,07,13,26,32.20
2011,07,07,13,27,35.40
2011,07,07,13,28,29.00
2011,07,07,13,29,33.80
2011,07,07,13,30,24.20
2011,07,07,13,31,25.70
2011,07,07,13,32,19.30
2011,07,07,13,33,20.90
2011,07,07,13,34,19.30
2011,07,07,13,35,25.70
2011,07,07,13,36,22.50
2011,07,07,13,37,30.60
2011,07,07,13,38,37.00
2011,07,07,13,39,37.00
2011,07,07,13,40,45.10
2011,07,07,13,41,41.80
2011,07,07,13,42,35.40
2011,07,07,13,43,24.20
2011,07,07,13,44,33.80
2011,07,07,13,45,27.40
2011,07,07,13,46,32.20
2011,07,07,13,47,29.00
2011,07,07,13,48,29.00
2011,07,07,13,49,38.60
2011,07,07,13,50,33.80
2011,07,07,13,51,29.00
2011,07,07,13,52,30.60
2011,07,07,13,53,30.60
2011,07,07,13,54,45.10
2011,07,07,13,55,46.70
2011,07,07,13,56,35.40
2011,07,07,13,57,46.70
2011,07,07,13,58,37.00
2011,07,07,13,59,43.50
2011,07,07,14,00,46.70
2011,07,07,14,01,40.20
2011,07,07,14,02,41.80
2011,07,07,14,03,40.20
2011,07,07,14,04,35.40
2011,07,07,14,05,27.40
2011,07,07,14,06,30.60
2011,07,07,14,07,29.00
2011,07,07,14,08,32.20
2011,07,07,14,09,40.20
2011,07,07,14,10,41.80
2011,07,07,14,11,27.40
2011,07,07,14,12,25.70
2011,07,07,14,13,37.00
2011,07,07,14,14,37.00
2011,07,07,14,15,41.80
2011,07,07,14,16,43.50
2011,07,07,14,17,43.50
2011,07,07,14,18,29.00
2011,07,07,14,19,22.50
2011,07,07,14,20,32.20
2011,07,07,14,21,32.20
2011,07,07,14,22,40.20
2011,07,07,14,23,37.00
2011,07,07,14,24,32.20
2011,07,07,14,25,27.40
2011,07,07,14,26,33.80
2011,07,07,14,27,43.50
2011,07,07,14,28,33.80
2011,07,07,14,29,38.60
2011,07,07,14,30,30.60
2011,07,07,14,31,37.00
2011,07,07,14,32,32.20
2011,07,07,14,33,40.20
2011,07,07,14,34,32.20
2011,07,07,14,35,30.60
2011,07,07,14,36,25.70
2011,07,07,14,37,25.70
2011,07,07,14,38,29.00
2011,07,07,14,39,41.80
2011,07,07,14,40,41.80
2011,07,07,14,41,25.70
2011,07,07,14,42,40.20
2011,07,07,14,43,32.20
2011,07,07,14,44,45.10
2011,07,07,14,45,40.20
2011,07,07,14,46,40.20
2011,07,07,14,47,33.80
2011,07,07,14,48,43.50
2011,07,07,14,49,45.10
2011,07,07,14,50,35.40
2011,07,07,14,51,27.40
2011,07,07,14,52,41.80
2011,07,07,14,53,43.50
2011,07,07,14,54,41.80
2011,07,07,14,55,38.60
2011,07,07,14,56,35.40
2011,07,07,14,57,33.80
2011,07,07,14,58,41.80
2011,07,07,14,59,30.60
2011,07,07,15,00,37.00
2011,07,07,15,01,41.80
2011,07,07,15,02,29.00
2011,07,07,15,03,37.00
2011,07,07,15,04,40.20
2011,07,07,15,05,41.80
2011,07,07,15,06,32.20
2011,07,07,15,07,27.40
2011,07,07,15,08,29.00
2011,07,07,15,09,24.20
2011,07,07,15,10,29.00
2011,07,07,15,11,35.40
2011,07,07,15,12,30.60
2011,07,07,15,13,32.20
2011,07,07,15,14,29.00
2011,07,07,15,15,35.40
2011,07,07,15,16,32.20
2011,07,07,15,17,40.20
2011,07,07,15,18,43.50
2011,07,07,15,19,37.00
2011,07,07,15,20,33.80
2011,07,07,15,21,40.20
2011,07,07,15,22,33.80
2011,07,07,15,23,38.60
2011,07,07,15,24,33.80
2011,07,07,15,25,30.60
2011,07,07,15,26,46.70
2011,07,07,15,27,38.60
2011,07,07,15,28,32.20
2011,07,07,15,29,37.00
2011,07,07,15,30,40.20
2011,07,07,15,31,37.00
2011,07,07,15,32,33.80
2011,07,07,15,33,33.80
2011,07,07,15,34,24.20
2011,07,07,15,35,19.30
2011,07,07,15,36,30.60
2011,07,07,15,37,27.40
2011,07,07,15,38,51.50
2011,07,07,15,39,46.70
2011,07,07,15,40,48.30
2011,07,07,15,41,48.30
2011,07,07,15,42,43.50
2011,07,07,15,43,38.60
2011,07,07,15,44,43.50
2011,07,07,15,45,32.20
2011,07,07,15,46,46.70
2011,07,07,15,47,37.00
2011,07,07,15,48,45.10
2011,07,07,15,49,41.80
2011,07,07,15,50,43.50
2011,07,07,15,51,32.20
2011,07,07,15,52,37.00
2011,07,07,15,53,37.00
2011,07,07,15,54,43.50
2011,07,07,15,55,33.80
2011,07,07,15,56,37.00
2011,07,07,15,57,29.00
2011,07,07,15,58,29.00
2011,07,07,15,59,27.40
2011,07,07,16,00,40.20
2011,07,07,16,01,32.20
2011,07,07,16,02,45.10
2011,07,07,16,03,43.50
2011,07,07,16,04,30.60
2011,07,07,16,05,38.60
2011,07,07,16,06,32.20
2011,07,07,16,07,37.00
2011,07,07,16,08,37.00
2011,07,07,16,09,38.60
2011,07,07,16,10,46.70
2011,07,07,16,11,38.60
2011,07,07,16,12,33.80
2011,07,07,16,13,37.00
2011,07,07,16,14,30.60
2011,07,07,16,15,32.20
2011,07,07,16,16,24.20
2011,07,07,16,17,27.40
2011,07,07,16,18,24.20
2011,07,07,16,19,35.40
2011,07,07,16,20,24.20
2011,07,07,16,21,40.20
2011,07,07,16,22,35.40
2011,07,07,16,23,30.60
2011,07,07,16,24,41.80
2011,07,07,16,25,35.40
2011,07,07,16,26,38.60
2011,07,07,16,27,24.20
2011,07,07,16,28,19.30
2011,07,07,16,29,24.20
2011,07,07,16,30,30.60
2011,07,07,16,31,33.80
2011,07,07,16,32,24.20
2011,07,07,16,33,43.50
2011,07,07,16,34,49.90
2011,07,07,16,35,51.50
2011,07,07,16,36,33.80
2011,07,07,16,37,40.20
2011,07,07,16,38,46.70
2011,07,07,16,39,35.40
2011,07,07,16,40,38.60
2011,07,07,16,41,35.40
2011,07,07,16,42,38.60
2011,07,07,16,43,46.70
2011,07,07,16,44,35.40
2011,07,07,16,45,38.60
2011,07,07,16,46,37.00
2011,07,07,16,47,46.70
2011,07,07,16,48,49.90
2011,07,07,16,49,29.00
2011,07,07,16,50,45.10
2011,07,07,16,51,41.80
2011,07,07,16,52,33.80
2011,07,07,16,53,69.20
2011,07,07,16,54,38.60
2011,07,07,16,55,38.60
2011,07,07,16,56,48.30
2011,07,07,16,57,45.10
2011,07,07,16,58,40.20
2011,07,07,16,59,30.60
2011,07,07,17,00,45.10
2011,07,07,17,01,40.20
2011,07,07,17,02,38.60
2011,07,07,17,03,33.80
2011,07,07,17,04,45.10
2011,07,07,17,05,35.40
2011,07,07,17,06,38.60
2011,07,07,17,07,35.40
2011,07,07,17,08,35.40
2011,07,07,17,09,38.60
2011,07,07,17,10,30.60
2011,07,07,17,11,30.60
2011,07,07,17,12,37.00
2011,07,07,17,13,30.60
2011,07,07,17,14,29.00
2011,07,07,17,15,40.20
2011,07,07,17,16,32.20
2011,07,07,17,17,27.40
2011,07,07,17,18,40.20
2011,07,07,17,19,16.10
2011,07,07,17,20,25.70
2011,07,07,17,21,20.90
2011,07,07,17,22,27.40
2011,07,07,17,23,41.80
2011,07,07,17,24,40.20
2011,07,07,17,25,46.70
2011,07,07,17,26,30.60
2011,07,07,17,27,37.00
2011,07,07,17,28,40.20
2011,07,07,17,29,24.20
2011,07,07,17,30,35.40
2011,07,07,17,31,29.00
2011,07,07,17,32,35.40
2011,07,07,17,33,38.60
2011,07,07,17,34,38.60
2011,07,07,17,35,33.80
2011,07,07,17,36,40.20
2011,07,07,17,37,46.70
2011,07,07,17,38,24.20
2011,07,07,17,39,27.40
2011,07,07,17,40,29.00
2011,07,07,17,41,25.70
2011,07,07,17,42,30.60
2011,07,07,17,43,40.20
2011,07,07,17,44,35.40
2011,07,07,17,45,37.00
2011,07,07,17,46,32.20
2011,07,07,17,47,41.80
2011,07,07,17,48,32.20
2011,07,07,17,49,37.00
2011,07,07,17,50,45.10
2011,07,07,17,51,41.80
2011,07,07,17,52,41.80
2011,07,07,17,53,29.00
2011,07,07,17,54,24.20
2011,07,07,17,55,27.40
2011,07,07,17,56,25.70
2011,07,07,17,57,19.30
2011,07,07,17,58,35.40
2011,07,07,17,59,25.70
2011,07,07,18,00,29.00
2011,07,07,18,01,32.20
2011,07,07,18,02,25.70
2011,07,07,18,03,32.20
2011,07,07,18,04,45.10
2011,07,07,18,05,40.20
2011,07,07,18,06,30.60
2011,07,07,18,07,45.10
2011,07,07,18,08,40.20
2011,07,07,18,09,45.10
2011,07,07,18,10,35.40
2011,07,07,18,11,30.60
2011,07,07,18,12,37.00
2011,07,07,18,13,40.20
2011,07,07,18,14,37.00
2011,07,07,18,15,33.80
2011,07,07,18,16,30.60
2011,07,07,18,17,29.00
2011,07,07,18,18,45.10
2011,07,07,18,19,24.20
2011,07,07,18,20,32.20
2011,07,07,18,21,35.40
2011,07,07,18,22,37.00
2011,07,07,18,23,29.00
2011,07,07,18,24,29.00
2011,07,07,18,25,25.70
2011,07,07,18,26,37.00
2011,07,07,18,27,35.40
2011,07,07,18,28,29.00
2011,07,07,18,29,37.00
2011,07,07,18,30,32.20
2011,07,07,18,31,24.20
2011,07,07,18,32,20.90
2011,07,07,18,33,12.90
2011,07,07,18,34,29.00
2011,07,07,18,35,33.80
2011,07,07,18,36,24.20
2011,07,07,18,37,17.70
2011,07,07,18,38,17.70
2011,07,07,18,39,33.80
2011,07,07,18,40,35.40
2011,07,07,18,41,37.00
2011,07,07,18,42,22.50
2011,07,07,18,43,32.20
2011,07,07,18,44,32.20
2011,07,07,18,45,33.80
2011,07,07,18,46,37.00
2011,07,07,18,47,38.60
2011,07,07,18,48,22.50
2011,07,07,18,49,38.60
2011,07,07,18,50,32.20
2011,07,07,18,51,24.20
2011,07,07,18,52,33.80
2011,07,07,18,53,22.50
2011,07,07,18,54,33.80
2011,07,07,18,55,33.80
2011,07,07,18,56,32.20
2011,07,07,18,57,33.80
2011,07,07,18,58,37.00
2011,07,07,18,59,14.50
2011,07,07,19,00,29.00
2011,07,07,19,01,22.50
2011,07,07,19,02,30.60
2011,07,07,19,03,25.70
2011,07,07,19,04,30.60
2011,07,07,19,05,27.40
2011,07,07,19,06,19.30
2011,07,07,19,07,24.20
2011,07,07,19,08,20.90
2011,07,07,19,09,38.60
2011,07,07,19,10,29.00
2011,07,07,19,11,30.60
2011,07,07,19,12,16.10
2011,07,07,19,13,32.20
2011,07,07,19,14,25.70
2011,07,07,19,15,19.30
2011,07,07,19,16,33.80
2011,07,07,19,17,24.20
2011,07,07,19,18,27.40
2011,07,07,19,19,25.70
2011,07,07,19,20,30.60
2011,07,07,19,21,30.60
2011,07,07,19,22,35.40
2011,07,07,19,23,35.40
2011,07,07,19,24,25.70
2011,07,07,19,25,16.10
2011,07,07,19,26,19.30
2011,07,07,19,27,25.70
2011,07,07,19,28,27.40
2011,07,07,19,29,38.60
2011,07,07,19,30,27.40
2011,07,07,19,31,32.20
2011,07,07,19,32,41.80
2011,07,07,19,33,29.00
2011,07,07,19,34,29.00
2011,07,07,19,35,38.60
2011,07,07,19,36,33.80
2011,07,07,19,37,32.20
2011,07,07,19,38,33.80
2011,07,07,19,39,33.80
2011,07,07,19,40,25.70
2011,07,07,19,41,24.20
2011,07,07,19,42,29.00
2011,07,07,19,43,14.50
2011,07,07,19,44,8.10
2011,07,07,19,45,19.30
2011,07,07,19,46,30.60
2011,07,07,19,47,20.90
2011,07,07,19,48,25.70
2011,07,07,19,49,22.50
2011,07,07,19,50,37.00
2011,07,07,19,51,16.10
2011,07,07,19,52,32.20